Jackson, NJ

9:19 PM EST on December 03, 2016 (GMT -0500)
Lakehurst Naes

Weather History for KNEL - February, 2013

Change the Weather History Date:

Tuesday, February 26, 2013

  Actual Average Record
Temperature  
Mean Temperature 32 °F -  
Max Temperature 41 °F 43 °F 66 °F (2002)
Min Temperature 23 °F 31 °F 14 °F (2014)
Degree Days  
Heating Degree Days 32    
Moisture  
Dew Point 30 °F    
Average Humidity 84    
Maximum Humidity 96    
Minimum Humidity 65    
Precipitation  
Precipitation 0.00 in - - ()
Sea Level Pressure  
Sea Level Pressure 30.11 in    
Wind  
Wind Speed 7 mph (ENE)    
Max Wind Speed 28 mph    
Max Gust Speed 34 mph    
Averages and records for this station are not official NWS values.
T = Trace of Precipitation, MM = Missing Value Source: NWS Daily Summary

Daily Weather History Graph

Daily Weather History Graph

Search for Another Location

Airport or City:

Trip Planner

Search our weather history database for the weather conditions in past years. The results will help you decide how hot, cold, wet, or windy it might be!

Date:

Astronomy

Feb. 26, 2013 Rise Set
Actual Time 6:34 AM EST 5:46 PM EST
Civil Twilight 6:07 AM EST 6:13 PM EST
Nautical Twilight 5:36 AM EST 6:44 PM EST
Astronomical Twilight 5:04 AM EST 7:16 PM EST
Moon 7:00 PM EST (2/26) 6:36 AM EST (2/26)
Length of Visible Light 12h 05m
Length of Day
11h 11m
Full, 99% of the Moon is Illuminated
Feb 26
Full
Mar 4
Last Quarter
Mar 11
New
Mar 19
First Quarter
Mar 27
Full

Hourly Weather History & Observations

Time (EST) Temp. Windchill Dew Point Humidity Pressure Visibility Wind Dir Wind Speed Gust Speed Precip Events Conditions
12:00 AM 26.1 °F - 24.1 °F 92% 30.22 in - Calm Calm - N/A   Partly Cloudy
1:00 AM 24.1 °F 18.2 °F 21.9 °F 91% 30.25 in - West 4.6 mph - N/A   Clear
2:00 AM 27.0 °F - 24.1 °F 89% 30.24 in - Calm Calm - N/A   Overcast
3:00 AM 25.0 °F - 23.0 °F 92% 30.24 in - Calm Calm - N/A   Clear
4:00 AM 24.1 °F - 21.9 °F 91% 30.25 in - Calm Calm - N/A   Clear
5:00 AM 23.0 °F - 19.0 °F 85% 30.23 in - Calm Calm - N/A   Clear
6:00 AM 23.0 °F - 21.9 °F 96% 30.22 in - Calm Calm - N/A   Clear
7:00 AM 23.0 °F - 21.0 °F 92% 30.25 in - Calm Calm - N/A   Clear
8:00 AM 30.0 °F - 27.0 °F 88% 30.26 in - Calm Calm - N/A   Clear
9:00 AM 36.0 °F 32.1 °F 30.0 °F 79% 30.25 in - ENE 4.6 mph - N/A   Clear
3:00 PM 42.1 °F 35.7 °F 30.9 °F 65% 30.16 in - East 11.5 mph - N/A   Overcast
4:00 PM 42.1 °F 34.2 °F 33.1 °F 70% 30.13 in - East 16.1 mph - N/A   Overcast
5:00 PM 41.0 °F 31.9 °F 33.1 °F 73% 30.10 in - East 19.6 mph 27.6 mph N/A   Overcast
5:41 PM 41.0 °F 32.2 °F 33.8 °F 76% 30.09 in - East 18.4 mph 25.3 mph N/A   Overcast
6:00 PM 41.0 °F 32.8 °F 33.1 °F 73% 30.08 in - East 16.1 mph 24.2 mph N/A   Overcast
7:00 PM 41.0 °F 31.6 °F 32.0 °F 70% 30.04 in - East 20.7 mph 34.5 mph N/A   Overcast
7:09 PM 41.0 °F 31.6 °F 32.0 °F 70% 30.04 in - East 20.7 mph 29.9 mph N/A   Overcast
8:00 PM 39.0 °F 28.5 °F 33.1 °F 79% 30.00 in - East 23.0 mph 26.5 mph N/A Rain Light Rain
9:00 PM 39.0 °F 28.8 °F 36.0 °F 89% 29.94 in - East 21.9 mph 29.9 mph N/A Rain Light Rain
9:10 PM 39.2 °F 29.0 °F 35.6 °F 87% 29.95 in - East 21.9 mph 31.1 mph N/A Rain Light Rain
9:40 PM 39.2 °F 28.7 °F 37.4 °F 93% 29.93 in - ENE 23.0 mph 29.9 mph N/A Rain Heavy Rain
10:00 PM 39.9 °F 30.0 °F 37.0 °F 89% 29.90 in - East 21.9 mph 31.1 mph N/A Rain Light Rain
11:00 PM 39.9 °F 28.8 °F 37.9 °F 93% 29.82 in - ENE 27.6 mph 33.4 mph N/A Rain Light Rain